Hourly Weather Rumunki

Today, 10 April, Saturday

Time Temperature Precipitation Wind Pressure Humidity
00:00 +3°C° 0 mm 3 mps 749 mmHg 81%
01:00 +2°C° 0 mm 3 mps 749 mmHg 84%
02:00 +2°C° 0 mm 3 mps 749 mmHg 86%
03:00 +3°C° 0 mm 2 mps 749 mmHg 88%
04:00 +2°C° 0 mm 2 mps 749 mmHg 90%
05:00 +3°C° 0 mm 2 mps 749 mmHg 87%
06:00 +4°C° 0 mm 2 mps 750 mmHg 85%
07:00 +5°C° 0 mm 2 mps 750 mmHg 82%
08:00 +6°C° 0 mm 2 mps 750 mmHg 79%
09:00 +7°C° 0 mm 2 mps 750 mmHg 75%
10:00 +8°C° 0 mm 3 mps 751 mmHg 72%
11:00 +7°C° 0.5 mm 2 mps 751 mmHg 78%
12:00 +7°C° 0.5 mm 2 mps 751 mmHg 84%
13:00 +6°C° 0.5 mm 2 mps 752 mmHg 90%
14:00 +6°C° 0.3 mm 2 mps 752 mmHg 90%
15:00 +5°C° 0.3 mm 2 mps 752 mmHg 91%
16:00 +5°C° 0.3 mm 2 mps 752 mmHg 91%
17:00 +5°C° 0 mm 2 mps 753 mmHg 91%
18:00 +4°C° 0 mm 2 mps 753 mmHg 92%
19:00 +4°C° 0 mm 2 mps 753 mmHg 92%
20:00 +4°C° 0 mm 2 mps 753 mmHg 92%
21:00 +4°C° 0 mm 2 mps 754 mmHg 92%
22:00 +3°C° 0 mm 2 mps 754 mmHg 92%
23:00 +3°C° 0 mm 2 mps 754 mmHg 93%

Tomorrow, 11 April, Sunday

Time Temperature Precipitation Wind Pressure Humidity
00:00 +3°C° 0 mm 2 mps 754 mmHg 93%
01:00 +3°C° 0 mm 2 mps 754 mmHg 93%
02:00 +4°C° 0 mm 2 mps 754 mmHg 94%
03:00 +4°C° 0 mm 2 mps 754 mmHg 94%
04:00 +3°C° 0 mm 3 mps 754 mmHg 95%
05:00 +4°C° 0 mm 3 mps 754 mmHg 94%
06:00 +4°C° 0 mm 3 mps 753 mmHg 93%
07:00 +5°C° 0 mm 4 mps 753 mmHg 92%
08:00 +7°C° 0 mm 4 mps 753 mmHg 86%
09:00 +10°C° 0 mm 4 mps 753 mmHg 80%
10:00 +10°C° 0 mm 5 mps 753 mmHg 75%
11:00 +13°C° 0 mm 5 mps 753 mmHg 69%
12:00 +14°C° 0 mm 6 mps 752 mmHg 64%
13:00 +16°C° 0 mm 6 mps 752 mmHg 58%
14:00 +16°C° 0 mm 6 mps 752 mmHg 57%
15:00 +16°C° 0 mm 6 mps 751 mmHg 56%
16:00 +16°C° 0 mm 5 mps 751 mmHg 55%
17:00 +14°C° 0 mm 5 mps 751 mmHg 61%
18:00 +13°C° 0 mm 4 mps 751 mmHg 67%
19:00 +11°C° 0 mm 3 mps 751 mmHg 73%
20:00 +11°C° 0 mm 3 mps 751 mmHg 72%
21:00 +11°C° 0 mm 3 mps 752 mmHg 72%
22:00 +11°C° 0 mm 3 mps 752 mmHg 71%
23:00 +10°C° 0 mm 3 mps 751 mmHg 73%

Day after tomorrow, 12 April, Monday

Time Temperature Precipitation Wind Pressure Humidity
00:00 +9°C° 0 mm 3 mps 751 mmHg 76%
01:00 +9°C° 0 mm 3 mps 751 mmHg 78%
02:00 +9°C° 0 mm 3 mps 751 mmHg 79%
03:00 +8°C° 0 mm 4 mps 751 mmHg 79%
04:00 +8°C° 0 mm 4 mps 751 mmHg 80%
05:00 +8°C° 0 mm 4 mps 751 mmHg 81%
06:00 +8°C° 0 mm 4 mps 750 mmHg 83%
07:00 +8°C° 0 mm 4 mps 750 mmHg 84%
08:00 +10°C° 0 mm 4 mps 750 mmHg 81%
09:00 +11°C° 0 mm 4 mps 750 mmHg 77%
10:00 +12°C° 0 mm 5 mps 751 mmHg 74%
11:00 +13°C° 0 mm 4 mps 751 mmHg 72%
12:00 +13°C° 0 mm 4 mps 750 mmHg 70%
13:00 +14°C° 0 mm 3 mps 750 mmHg 67%
14:00 +14°C° 0 mm 3 mps 750 mmHg 67%
15:00 +15°C° 0 mm 2 mps 750 mmHg 68%
16:00 +14°C° 0 mm 2 mps 750 mmHg 68%
17:00 +11°C° 0 mm 3 mps 751 mmHg 73%
18:00 +8°C° 0 mm 4 mps 752 mmHg 78%
19:00 +5°C° 0 mm 5 mps 753 mmHg 83%
20:00 +5°C° 0 mm 5 mps 753 mmHg 83%
21:00 +3°C° 0 mm 5 mps 754 mmHg 82%
22:00 +4°C° 0 mm 4 mps 754 mmHg 82%
23:00 +3°C° 0 mm 4 mps 754 mmHg 81%

13 April, Tuesday

Time Temperature Precipitation Wind Pressure Humidity
00:00 +3°C° 0 mm 4 mps 754 mmHg 81%
01:00 +3°C° 0 mm 4 mps 754 mmHg 80%
02:00 +3°C° 0 mm 4 mps 754 mmHg 79%
03:00 +3°C° 0 mm 4 mps 754 mmHg 78%
04:00 +3°C° 0 mm 4 mps 755 mmHg 77%
05:00 +1°C° 0.2 mm 4 mps 755 mmHg 82%
06:00 +1°C° 0.2 mm 4 mps 755 mmHg 86%
07:00 0°C° 0.2 mm 4 mps 756 mmHg 90%
08:00 0°C° 0.6 mm 4 mps 756 mmHg 91%
09:00 0°C° 0.6 mm 4 mps 756 mmHg 92%
10:00 +1°C° 0.6 mm 3 mps 756 mmHg 93%
11:00 +2°C° 0.4 mm 3 mps 756 mmHg 89%
12:00 +3°C° 0.4 mm 3 mps 756 mmHg 84%
13:00 +3°C° 0.4 mm 3 mps 757 mmHg 80%
14:00 +4°C° 0 mm 3 mps 756 mmHg 76%
15:00 +4°C° 0 mm 4 mps 756 mmHg 73%
16:00 +5°C° 0 mm 4 mps 756 mmHg 70%
17:00 +4°C° 0 mm 4 mps 756 mmHg 75%
18:00 +3°C° 0 mm 3 mps 756 mmHg 80%
19:00 +1°C° 0 mm 3 mps 757 mmHg 86%
20:00 +2°C° 0 mm 2 mps 756 mmHg 85%
21:00 +2°C° 0 mm 2 mps 756 mmHg 85%
22:00 +2°C° 0 mm 2 mps 756 mmHg 85%
23:00 +2°C° 0 mm 2 mps 756 mmHg 85%

14 April, Wednesday

Time Temperature Precipitation Wind Pressure Humidity
00:00 +2°C° 0 mm 2 mps 756 mmHg 85%
01:00 +2°C° 0 mm 2 mps 756 mmHg 86%
02:00 +2°C° 0 mm 2 mps 755 mmHg 85%
03:00 +2°C° 0 mm 2 mps 755 mmHg 85%
04:00 +2°C° 0 mm 2 mps 755 mmHg 85%
05:00 +3°C° 0 mm 2 mps 755 mmHg 83%
06:00 +2°C° 0 mm 3 mps 755 mmHg 81%
07:00 +2°C° 0 mm 3 mps 755 mmHg 79%
08:00 +3°C° 0 mm 4 mps 755 mmHg 74%
09:00 +3°C° 0 mm 5 mps 755 mmHg 69%
10:00 +5°C° 0 mm 5 mps 755 mmHg 64%
11:00 +5°C° 0.1 mm 6 mps 755 mmHg 61%
12:00 +5°C° 0.1 mm 6 mps 755 mmHg 58%
13:00 +5°C° 0.1 mm 6 mps 755 mmHg 55%
14:00 +5°C° 0 mm 6 mps 755 mmHg 56%
15:00 +5°C° 0 mm 6 mps 755 mmHg 57%
16:00 +4°C° 0 mm 6 mps 754 mmHg 58%
17:00 +3°C° 0 mm 6 mps 755 mmHg 64%
18:00 +2°C° 0 mm 5 mps 755 mmHg 71%
19:00 +1°C° 0 mm 4 mps 755 mmHg 77%
20:00 0°C° 0 mm 4 mps 755 mmHg 79%
21:00 0°C° 0 mm 4 mps 755 mmHg 81%
22:00 -1°C° 0 mm 4 mps 755 mmHg 84%
23:00 -1°C° 0 mm 4 mps 755 mmHg 84%

15 April, Thursday

Time Temperature Precipitation Wind Pressure Humidity
00:00 -1°C° 0 mm 4 mps 755 mmHg 84%
01:00 -1°C° 0 mm 4 mps 755 mmHg 85%
02:00 -1°C° 0 mm 5 mps 755 mmHg 83%
03:00 0°C° 0 mm 5 mps 755 mmHg 82%
04:00 0°C° 0 mm 5 mps 755 mmHg 81%
05:00 0°C° 0 mm 5 mps 755 mmHg 78%
06:00 +1°C° 0 mm 6 mps 755 mmHg 75%
07:00 +1°C° 0 mm 6 mps 755 mmHg 72%
08:00 +2°C° 0 mm 7 mps 755 mmHg 67%
09:00 +3°C° 0 mm 7 mps 755 mmHg 62%
10:00 +2°C° 0 mm 8 mps 756 mmHg 58%
11:00 +4°C° 0 mm 8 mps 756 mmHg 58%
12:00 +3°C° 0 mm 9 mps 756 mmHg 58%
13:00 +5°C° 0 mm 9 mps 756 mmHg 59%
14:00 +3°C° 0 mm 9 mps 756 mmHg 63%
15:00 +4°C° 0 mm 8 mps 756 mmHg 68%
16:00 +4°C° 0 mm 8 mps 756 mmHg 73%
17:00 +2°C° 0 mm 8 mps 756 mmHg 72%
18:00 +1°C° 0 mm 8 mps 756 mmHg 72%
19:00 +1°C° 0 mm 8 mps 756 mmHg 71%
20:00 0°C° 0 mm 8 mps 756 mmHg 74%
21:00 0°C° 0 mm 7 mps 756 mmHg 77%
22:00 -1°C° 0 mm 7 mps 756 mmHg 79%
23:00 -1°C° 0 mm 7 mps 756 mmHg 83%
Show more